Location: Shandelee
(41.8790°N, 74.8713°W)
Time: 13:40:37
(UTC+00:00)

SKYMED 2 - Pass Details

Date: 29 October 2020
Orbit: 621 x 623 km, 97.9° (Epoch: 01 December)

Event Time Altitude Azimuth Distance (km) Brightness Sun altitude
Rises 22:41:59 0° 18° (NNE) 2,912 6.7 -9.0°
Reaches altitude 10° 22:44:15 10° 25° (NNE) 2,000 5.8 -9.4°
Maximum altitude 22:48:27 47° 99° (E) 830 3.8 -10.2°
Drops below altitude 10° 22:52:37 10° 174° (S) 1,984 6.2 -10.9°
Sets 22:54:52 0° 180° (S) 2,885 7.1 -11.3°
